Elephant Butte, NM

5:41 AM MST on February 26, 2017 (GMT -0700)
Truth Or Consequences Municipal

Weather History for KTCS - April, 2014

Change the Weather History Date:

Monday, April 7, 2014

  Actual Average Record
Temperature  
Mean Temperature 60 °F -  
Max Temperature 74 °F 72 °F 82 °F (2013)
Min Temperature 46 °F 42 °F 33 °F (2001)
Degree Days  
Heating Degree Days 5    
Month to date heating degree days 62  
Since 1 July heating degree days 2789  
Cooling Degree Days 0    
Month to date cooling degree days 0  
Year to date cooling degree days 1  
Growing Degree Days 10 (Base 50)    
Moisture  
Dew Point 9 °F    
Average Humidity 17    
Maximum Humidity 28    
Minimum Humidity 5    
Precipitation  
Precipitation 0.00 in - 0.02 in (2002)
Month to date precipitation T  
Year to date precipitation 0.09  
Sea Level Pressure  
Sea Level Pressure 29.95 in    
Wind  
Wind Speed 13 mph (NNW)    
Max Wind Speed 25 mph    
Max Gust Speed 35 mph    
Visibility 10 miles    
Events      
T = Trace of Precipitation, MM = Missing Value Source: NWS Daily Summary

Daily Weather History Graph

Daily Weather History Graph

Search for Another Location

Airport or City:

Trip Planner

Search our weather history database for the weather conditions in past years. The results will help you decide how hot, cold, wet, or windy it might be!

Date:

Astronomy

Apr. 07, 2014 Rise Set
Actual Time 6:48 AM MDT 7:33 PM MDT
Civil Twilight 6:23 AM MDT 7:59 PM MDT
Nautical Twilight 5:54 AM MDT 8:28 PM MDT
Astronomical Twilight 5:23 AM MDT 8:59 PM MDT
Moon 12:55 PM MDT (4/7) 2:04 AM MDT (4/7)
Length of Visible Light 13h 35m
Length of Day
12h 44m
First Quarter, 54% of the Moon is Illuminated
Apr 7
First Quarter
Apr 15
Full
Apr 22
Last Quarter
Apr 29
New
May 6
First Quarter

Hourly Weather History & Observations

Time (MDT) Temp. Dew Point Humidity Pressure Visibility Wind Dir Wind Speed Gust Speed Precip Events Conditions
12:53 AM 50.0 °F 8.1 °F 18% 29.85 in 10.0 mi NW 10.4 mph - N/A   Clear
1:53 AM 48.0 °F 10.0 °F 22% 29.86 in 10.0 mi WNW 8.1 mph - N/A   Clear
2:53 AM 48.0 °F 10.0 °F 22% 29.86 in 10.0 mi NW 6.9 mph - N/A   Clear
3:53 AM 46.9 °F 10.9 °F 23% 29.86 in 10.0 mi NW 8.1 mph - N/A   Clear
4:53 AM 48.9 °F 12.9 °F 24% 29.87 in 10.0 mi NW 13.8 mph - N/A   Clear
5:53 AM 46.9 °F 14.0 °F 27% 29.90 in 10.0 mi NW 11.5 mph - N/A   Clear
6:53 AM 46.9 °F 15.1 °F 28% 29.94 in 10.0 mi NW 12.7 mph - N/A   Clear
7:53 AM 48.0 °F 15.1 °F 27% 29.97 in 10.0 mi WNW 15.0 mph 19.6 mph N/A   Clear
8:53 AM 53.1 °F 18.0 °F 25% 29.98 in 10.0 mi NW 16.1 mph 27.6 mph N/A   Clear
9:53 AM 55.9 °F 17.1 °F 22% 30.00 in 10.0 mi NNW 15.0 mph 24.2 mph N/A   Clear
10:53 AM 61.0 °F 12.9 °F 15% 30.00 in 10.0 mi NNE 18.4 mph 28.8 mph N/A   Clear
11:53 AM 63.0 °F 12.0 °F 14% 29.99 in 10.0 mi NNE 15.0 mph 24.2 mph N/A   Clear
12:53 PM 66.0 °F 10.0 °F 11% 29.98 in 10.0 mi North 21.9 mph 31.1 mph N/A   Clear
1:53 PM 70.0 °F 8.1 °F 9% 29.96 in 10.0 mi NNE 18.4 mph 26.5 mph N/A   Clear
2:53 PM 70.0 °F 5.0 °F 8% 29.93 in 10.0 mi North 12.7 mph 32.2 mph N/A   Clear
3:53 PM 72.0 °F 3.9 °F 7% 29.91 in 10.0 mi NNE 9.2 mph - N/A   Clear
4:53 PM 72.0 °F 1.9 °F 6% 29.90 in 10.0 mi NNW 16.1 mph 26.5 mph N/A   Clear
5:53 PM 72.0 °F -0.9 °F 6% 29.92 in 10.0 mi NW 17.3 mph 26.5 mph N/A   Clear
6:53 PM 71.1 °F -2.0 °F 6% 29.95 in 10.0 mi NW 16.1 mph 24.2 mph N/A   Clear
7:53 PM 66.0 °F -0.9 °F 7% 29.98 in 10.0 mi NW 11.5 mph - N/A   Clear
8:53 PM 61.0 °F -0.0 °F 9% 30.01 in 10.0 mi NW 8.1 mph - N/A   Clear
9:53 PM 57.0 °F 5.0 °F 12% 30.04 in 10.0 mi WNW 9.2 mph - N/A   Clear
10:53 PM 57.9 °F 9.0 °F 14% 30.04 in 10.0 mi NW 8.1 mph - N/A   Clear
11:53 PM 54.0 °F 9.0 °F 17% 30.07 in 10.0 mi NNW 6.9 mph - N/A   Clear